Regional Weather Roundup
Issued by NWS

Home | Current Version | Previous Version | Text Only | Print | Product List | Glossary On
Versions: 1 2 3 4 5 6 7 8 9 10 11 12 13 14 15 16 17 18 19 20 21 22 23 24 25 26 27 28 29 30 31 32 33 34 35 36 37 38 39 40 41 42 43 44 45 46 47 48 49 50
000
ASUS45 KABQ 142110
RWRNM
NEW MEXICO REGIONAL WEATHER ROUNDUP
NATIONAL WEATHER SERVICE ALBUQUERQUE NM
200 PM MST SUN FEB 14 2016

NOTE: "FAIR" MEANS FEW OR NO CLOUDS BELOW 12,000 FEET AGL WITH NO
       SIGNIFICANT WEATHER OR OBSTRUCTIONS TO VISION.

      THIS PRODUCT IS RELEASED AS TWO VERSIONS.  ONE VERSION NEAR
      THE TOP OF THE HOUR CONTAINING PRELIMINARY DATA FROM ALBUQUERQUE
      AND OTHER STATIONS.  A FINAL VERSION WITH ADDITIONAL DATA IS
      ISSUED ABOUT 10 MINUTES AFTER THE HOUR.

NMZ501-503-504-510>518-142200-
NORTHWEST PLATEAU/NORTHCENTRAL MOUNTAINS

CITY           SKY/WX    TMP DP  RH WIND       PRES   REMARKS
FARMINGTON     FAIR      53  21  28 W15G23    30.06F
LOS ALAMOS     FAIR      53  19  26 NE7       30.02F
SANTA FE       FAIR      60   9  13 W18G33    29.97F
TAOS           FAIR      50  18  27 SW17G23   30.00F
ANGEL FIRE     FAIR      42  13  31 W18G37    29.99F

$$
NMZ402-403-502-505>509-142200-
WESTCENTRAL MOUNTAINS/SOUTHWEST MOUNTAINS

CITY           SKY/WX    TMP DP  RH WIND       PRES   REMARKS
GALLUP         FAIR      59  10  14 W20       30.09F
GRANTS         FAIR      59   8  13 W16G22    30.08F
SILVER CITY      N/A     68   5   8 W14       30.04F

$$
NMZ407-409-411-412-142200-
SOUTHERN DESERTS

CITY           SKY/WX    TMP DP  RH WIND       PRES   REMARKS
LORDSBURG      FAIR      72  18  13 NW8G18    30.01F
DEMING         FAIR      74   9   8 W9G21     29.98F
LAS CRUCES     FAIR      72   7   8 W3        29.99F
HOLLOMAN AFB   FAIR      70   7   8 VRB5      29.95F
ALAMOGORDO     FAIR      72   9   8 W9        29.97F
T OR C         FAIR      69   6   8 SE7       29.98F

$$
NMZ519>523-142200-
CENTRAL VALLEYS/CENTRAL HIGHLANDS

CITY           SKY/WX    TMP DP  RH WIND       PRES   REMARKS
ALBUQUERQUE    PTSUNNY   62  12  14 W7        30.00F
DOUBLE EAGLE   PTSUNNY   61  14  16 SW13      30.02F
MORIARTY ARPT  FAIR      58   5  12 W16G24    30.00F
CLINES CORNERS FAIR      56   5  13 NW23G36   29.97F
BELEN          FAIR      61  10  13 SE3       30.01F
SOCORRO        FAIR      66  11  11 CALM      29.99F

$$
NMZ524>526-539-540-142200-
SOUTHCENTRAL MOUNTAINS

CITY           SKY/WX    TMP DP  RH WIND       PRES   REMARKS
RUIDOSO          N/A     59   1  10 NW16G23   30.04F

$$
NMZ527>531-142200-
NORTHEAST HIGHLANDS/NORTHEAST PLAINS

CITY           SKY/WX    TMP DP  RH WIND       PRES   REMARKS
LAS VEGAS      FAIR      58  10  15 SW21G29   29.89F
RATON          FAIR      54  19  25 CALM      29.86F
CLAYTON        FAIR      55  15  20 S20G28    29.87F

$$
NMZ532>537-142200-
EASTCENTRAL PLAINS

CITY           SKY/WX    TMP DP  RH WIND       PRES   REMARKS
TUCUMCARI      FAIR      62  16  16 SW13G23   29.90F
CANNON AFB     FAIR      58  17  20 S12       29.93F
CLOVIS AIRPORT FAIR      55  21  26 S10       29.94F

$$
NMZ028-029-538-142200-
SOUTHEAST PLAINS

CITY           SKY/WX    TMP DP  RH WIND       PRES   REMARKS
ROSWELL        FAIR      63  20  19 SW6       29.94F
ARTESIA        FAIR      61  25  25 CALM      29.96F
CARLSBAD       FAIR      65  23  20 VRB6      29.94F
HOBBS          SUNNY     63  18  17 N6        29.96F


$$



USA.gov is the U.S. government's official web portal to all federal, state and local government web resources and services.